Location: Albany
(35.0170°S, 117.8920°E)
Time: 17:32:41
(UTC+08:00)

SR - Pass Details

Date: 25 January 2021
Orbit: 573 x 882 km, 66.7° (Epoch: 25 February)

Event Time Altitude Azimuth Distance (km) Brightness Sun altitude
Rises 00:32:47 0° 189° (S) 2,879 ? -35.9°
Reaches altitude 10° 00:36:02 10° 164° (SSE) 1,933 ? -35.8°
Enters shadow 00:37:21 13° 147° (SSE) 1,703 ? -35.8°
